Zurück zum Katalog

FENGYUN 1C DEB

AktivSSO
NORAD 31633·DEBRIS·🇨🇳 China

Gestartet May 10, 1999 von Taiyuan Satellite Launch Center

Loading…

Nächste Überflüge (nächste 24 Stunden)

TLE

AlterndSource: Space-Track

Epoche: Sep 9, 2026, 05:53 UTC

1 31633U 99025CAP 26252.24580031  .00000886  00000-0  54431-3 0  9993
2 31633  98.7074 261.4827 0066864 130.2357 230.4688 14.07001732608879

Verfolge FENGYUN 1C DEB in Echtzeit mit AllMySat

Download on the App Store